This is the latest recevied weather packets stored in our database for station/object WA2TQI. If no packets are shown the sender has not sent any weather packets the latest 1 day(s).
| Time | Temp. | Humidity | Pressure | Rain* | Wind** | Luminosity | Snow |
|---|---|---|---|---|---|---|---|
| 1778055946 | 18.33° C | 88% | 1011.3 hPa | 0 mm | 1.79 m/s, 146° | - | - |
| 1778055642 | 18.33° C | 88% | 1011.3 hPa | 0 mm | 0.89 m/s, 212° | - | - |
| 1778055340 | 18.33° C | 87% | 1011.4 hPa | 0 mm | 1.79 m/s, 205° | - | - |
| 1778055037 | 18.33° C | 86% | 1011.3 hPa | 0 mm | 1.79 m/s, 244° | - | - |
| 1778054735 | 18.33° C | 87% | 1011.3 hPa | 0 mm | 0.89 m/s, 224° | - | - |
| 1778054432 | 18.33° C | 87% | 1011.3 hPa | 0 mm | 1.79 m/s, 128° | - | - |
| 1778054129 | 18.33° C | 87% | 1011.5 hPa | 0 mm | 1.79 m/s, 191° | - | - |
| 1778053826 | 18.33° C | 87% | 1011.4 hPa | 0 mm | 0.89 m/s, 216° | - | - |
| 1778053523 | 18.33° C | 86% | 1011.4 hPa | 0 mm | 0.89 m/s, 197° | - | - |
| 1778053220 | 18.33° C | 86% | 1011.2 hPa | 0 mm | 2.24 m/s, 170° | - | - |
| 1778052918 | 18.33° C | 86% | 1011.4 hPa | 0 mm | 1.34 m/s, 143° | - | - |
| 1778052615 | 18.89° C | 86% | 1011.4 hPa | 0 mm | 0.45 m/s, 210° | - | - |
| 1778052312 | 18.89° C | 86% | 1011.5 hPa | 0 mm | 0.89 m/s, 108° | - | - |
| 1778052010 | 18.33° C | 86% | 1011.3 hPa | 0 mm | 0.89 m/s, 99° | - | - |
| 1778051715 | 18.89° C | 86% | 1011.4 hPa | 0 mm | 1.34 m/s, 151° | - | - |
| 1778051405 | 18.89° C | 86% | 1011.5 hPa | 0 mm | 0.45 m/s, 151° | - | - |
| 1778051102 | 18.89° C | 86% | 1011.6 hPa | 0 mm | 0.89 m/s, 154° | - | - |
| 1778050799 | 18.89° C | 86% | 1011.6 hPa | 0 mm | 1.79 m/s, 191° | - | - |
| 1778050497 | 18.89° C | 86% | 1011.7 hPa | 0 mm | 0.89 m/s, 243° | - | - |
| 1778050193 | 18.89° C | 86% | 1011.6 hPa | 0 mm | 1.79 m/s, 209° | - | - |
| 1778049890 | 18.89° C | 86% | 1011.7 hPa | 0 mm | 0.89 m/s, 203° | - | - |
| 1778049586 | 18.89° C | 86% | 1011.7 hPa | 0 mm | 0.45 m/s, 189° | - | - |
| 1778049283 | 18.89° C | 86% | 1011.6 hPa | 0 mm | 1.79 m/s, 165° | - | - |
| 1778048981 | 18.89° C | 86% | 1011.7 hPa | 0 mm | 2.24 m/s, 179° | - | - |
| 1778048679 | 18.89° C | 86% | 1011.7 hPa | 0 mm | 0 m/s | - | - |
* Rain latest hour (hover to see other rain measurements)
** Current wind speed in m/s (hover to see current wind gust speed)